traduceletras.net alexa rank chart, traduceletras.net alexa rank daily changes

traduceletras.net alexa rank chart, traduceletras.net alexa rank daily changes

traduceletras.net
Actual rank:
74 458

RANK HISTORY

Date Rank Diff
2017/05/25 74 458 +109
2017/05/24 74 349 +1 766
2017/05/23 72 583 -230
2017/05/22 72 813 +25
2017/05/21 72 788 -595
2017/05/20 73 383 -754
2017/05/19 74 137 -289
2017/05/18 74 426 -568
2017/05/17 74 994 -172
2017/05/16 75 166 +402
2017/05/15 74 764 +213
2017/05/14 74 551 +421
2017/05/13 74 130 -231
2017/05/12 74 361 +479
2017/05/11 73 882 +57
2017/05/10 73 825 +82
2017/05/09 73 743 -62
2017/05/08 73 805 -1 369
2017/05/07 75 174 +5
2017/05/06 75 169 -207
2017/05/05 75 376 -198
2017/05/04 75 574 +402
2017/05/03 75 172 +1 353
2017/05/02 73 819 -157
2017/05/01 73 976 -1 161
2017/04/30 75 137 -691
2017/04/29 75 828 -495
2017/04/28 76 323 +899
2017/04/27 75 424 +762
2017/04/26 74 662 -438
2017/04/25 75 100 -25
2017/04/24 75 125 -1 100
2017/04/23 76 225 +191
2017/04/22 76 034 -519
2017/04/21 76 553 -160
2017/04/20 76 713 +646
2017/04/19 76 067 +337
2017/04/18 75 730 +250
2017/04/17 75 480 +347
2017/04/16 75 133 -816
2017/04/15 75 949 -866
2017/04/14 76 815 -267
2017/04/13 77 082 -82
2017/04/12 77 164 -312
2017/04/11 77 476 -594
2017/04/10 78 070 -802
2017/04/09 78 872 -1 693
2017/04/08 80 565 +307
2017/04/07 80 258 -205
2017/04/06 80 463 +968
2017/04/05 79 495 +427
2017/04/04 79 068 +1
2017/04/03 79 067 -1 463
2017/04/02 80 530 -1 383
2017/04/01 81 913 +511
2017/03/31 81 402 +14
2017/03/30 81 388 +274
2017/03/29 81 114 -771
2017/03/28 81 885 -816
2017/03/27 82 701 -768
2017/03/26 83 469

WIDGET FOR YOUR SITE

DOMAINS WITH THE NEAREST RANK

Domain Rank
gogomanga.to 74 453
clix.ir 74 454
guitarworld.com.cn 74 455
bpm-power.com 74 456
mathematicsschool.blogspot.in 74 457
traduceletras.net 74 458
convertimage.net 74 459
unisabana.edu.co 74 460
koco.com 74 461
amino.dk 74 462
mylordmusic.com 74 463

DOMAINS WITH THE NEAREST RANK BY TLD .net

Domain Rank
myldsmail.net 74 288
pornoamateurlatino.net 74 289
zargacum.net 74 318
limona.net 74 340
gripfile.net 74 390
traduceletras.net 74 458
convertimage.net 74 459
gamingforgood.net 74 477
widencdn.net 74 526
instagramtakipci.net 74 555
hubspotcentral.net 74 593